This is the latest recevied weather packets stored in our database for station/object ac2ev. If no packets are shown the sender has not sent any weather packets the latest 10 day(s).
| Time | Temp. | Humidity | Pressure | Rain* | Wind** | Luminosity | Snow |
|---|---|---|---|---|---|---|---|
| 1787510203 | 22.22° C | 68% | 1006.3 hPa | 0 mm | - | - | - |
| 1787509904 | 21.67° C | 68% | 1006.5 hPa | 0 mm | - | - | - |
| 1787509602 | 21.67° C | 68% | 1006.5 hPa | 0 mm | - | - | - |
| 1787509302 | 22.22° C | 68% | 1006.5 hPa | 0 mm | - | - | - |
| 1787509001 | 21.67° C | 69% | 1006.5 hPa | 0 mm | - | - | - |
| 1787508697 | 21.67° C | 68% | 1006.5 hPa | 0 mm | - | - | - |
| 1787508397 | 21.67° C | 70% | 1006.5 hPa | 0 mm | - | - | - |
| 1787508097 | 21.67° C | 68% | 1006.5 hPa | 0 mm | - | - | - |
| 1787507797 | 21.67° C | 71% | 1006.5 hPa | 0 mm | - | - | - |
| 1787507497 | 21.67° C | 71% | 1006.5 hPa | 0 mm | - | - | - |
| 1787507198 | 21.67° C | 74% | 1006.6 hPa | 0 mm | - | - | - |
| 1787506897 | 21.11° C | 74% | 1006.6 hPa | 0 mm | - | - | - |
| 1787506597 | 21.11° C | 76% | 1006.6 hPa | 0 mm | - | - | - |
| 1787506297 | 20.56° C | 77% | 1006.6 hPa | 0 mm | - | - | - |
| 1787505997 | 20.56° C | 78% | 1006.6 hPa | 0 mm | - | - | - |
| 1787505697 | 20.56° C | 78% | 1006.5 hPa | 0 mm | - | - | - |
| 1787505398 | 20° C | 78% | 1006.6 hPa | 0 mm | - | - | - |
| 1787505097 | 20° C | 80% | 1006.6 hPa | 0 mm | - | - | - |
| 1787504797 | 19.44° C | 81% | 1006.7 hPa | 0 mm | - | - | - |
| 1787504494 | 19.44° C | 81% | 1006.8 hPa | 0 mm | - | - | - |
| 1787504196 | 18.89° C | 81% | 1006.8 hPa | 0 mm | - | - | - |
| 1787503894 | 18.89° C | 83% | 1007 hPa | 0 mm | - | - | - |
| 1787503593 | 18.89° C | 82% | 1007 hPa | 0 mm | - | - | - |
| 1787503424 | 18.89° C | 81% | 1007 hPa | 0 mm | - | - | - |
| 1787502994 | 18.89° C | 80% | 1007 hPa | 0 mm | - | - | - |
* Rain latest hour (hover to see other rain measurements)
** Current wind speed in m/s (hover to see current wind gust speed)